Tracking 28091 objects as of 29-Sep-2023
HD Live streaming from Space Station
objects crossing your sky now

STARLINK-4347

Track STARLINK-4347 now!
10-day predictions
STARLINK-4347 is classified as:


NORAD ID: 53076
Int'l Code: 2022-077AK
Perigee: 568.9 km
Apogee: 571.3 km
Inclination: 97.7 °
Period: 95.9 minutes
Semi major axis: 6941 km
RCS: Unknown
Launch date: July 11, 2022
Source: United States (US)
Launch site: AIR FORCE WESTERN TEST RANGE (AFWTR)
Your satellite tracking list
Your tracking list is empty




NASA's NSSDC Master Catalog

Two Line Element Set (TLE):
1 53076U 22077AK  23272.45478255  .00000774  00000-0  64813-4 0  9999
2 53076  97.6585  92.0446 0001732  85.0752 275.0670 15.01261366 67054
Source of the keplerian elements: AFSPC